Year,Month,Day,Hour,Minute,Value (Times are PST for temperature in C)
2009,07,12,00,00,16.40
2009,07,12,00,01,16.40
2009,07,12,00,02,16.40
2009,07,12,00,03,16.50
2009,07,12,00,04,16.60
2009,07,12,00,05,16.60
2009,07,12,00,06,16.70
2009,07,12,00,07,16.70
2009,07,12,00,08,16.70
2009,07,12,00,09,16.70
2009,07,12,00,10,16.70
2009,07,12,00,11,16.70
2009,07,12,00,12,16.70
2009,07,12,00,13,16.70
2009,07,12,00,14,16.70
2009,07,12,00,15,16.80
2009,07,12,00,16,16.80
2009,07,12,00,17,16.80
2009,07,12,00,18,16.90
2009,07,12,00,19,16.90
2009,07,12,00,20,16.90
2009,07,12,00,21,16.90
2009,07,12,00,22,17.00
2009,07,12,00,23,17.00
2009,07,12,00,24,17.00
2009,07,12,00,25,17.00
2009,07,12,00,26,17.00
2009,07,12,00,27,17.00
2009,07,12,00,28,17.00
2009,07,12,00,29,17.00
2009,07,12,00,30,17.00
2009,07,12,00,31,17.00
2009,07,12,00,32,17.00
2009,07,12,00,33,17.10
2009,07,12,00,34,17.10
2009,07,12,00,35,17.10
2009,07,12,00,36,17.20
2009,07,12,00,37,17.10
2009,07,12,00,38,17.10
2009,07,12,00,39,17.20
2009,07,12,00,40,17.20
2009,07,12,00,41,17.20
2009,07,12,00,42,17.30
2009,07,12,00,43,17.30
2009,07,12,00,44,17.40
2009,07,12,00,45,17.50
2009,07,12,00,46,17.50
2009,07,12,00,47,17.60
2009,07,12,00,48,17.60
2009,07,12,00,49,17.70
2009,07,12,00,50,17.70
2009,07,12,00,51,17.70
2009,07,12,00,52,17.80
2009,07,12,00,53,17.80
2009,07,12,00,54,17.80
2009,07,12,00,55,17.90
2009,07,12,00,56,17.90
2009,07,12,00,57,17.90
2009,07,12,00,58,17.90
2009,07,12,00,59,17.90
2009,07,12,01,00,17.90
2009,07,12,01,01,17.90
2009,07,12,01,02,17.90
2009,07,12,01,03,18.00
2009,07,12,01,04,18.10
2009,07,12,01,05,18.10
2009,07,12,01,06,18.10
2009,07,12,01,07,18.10
2009,07,12,01,08,18.10
2009,07,12,01,09,18.00
2009,07,12,01,10,17.90
2009,07,12,01,11,17.90
2009,07,12,01,12,17.80
2009,07,12,01,13,17.80
2009,07,12,01,14,17.70
2009,07,12,01,15,17.70
2009,07,12,01,16,17.70
2009,07,12,01,17,17.80
2009,07,12,01,18,17.90
2009,07,12,01,19,17.90
2009,07,12,01,20,17.90
2009,07,12,01,21,17.90
2009,07,12,01,22,17.90
2009,07,12,01,23,17.90
2009,07,12,01,24,17.80
2009,07,12,01,25,17.90
2009,07,12,01,26,17.90
2009,07,12,01,27,17.90
2009,07,12,01,28,17.90
2009,07,12,01,29,17.80
2009,07,12,01,30,17.80
2009,07,12,01,31,17.80
2009,07,12,01,32,17.80
2009,07,12,01,33,17.80
2009,07,12,01,34,17.90
2009,07,12,01,35,17.90
2009,07,12,01,36,17.90
2009,07,12,01,37,18.00
2009,07,12,01,38,18.10
2009,07,12,01,39,18.20
2009,07,12,01,40,18.20
2009,07,12,01,41,18.20
2009,07,12,01,42,18.20
2009,07,12,01,43,18.20
2009,07,12,01,44,18.10
2009,07,12,01,45,18.00
2009,07,12,01,46,17.90
2009,07,12,01,47,17.90
2009,07,12,01,48,17.80
2009,07,12,01,49,17.80
2009,07,12,01,50,17.80
2009,07,12,01,51,17.70
2009,07,12,01,52,17.70
2009,07,12,01,53,17.60
2009,07,12,01,54,17.60
2009,07,12,01,55,17.50
2009,07,12,01,56,17.50
2009,07,12,01,57,17.50
2009,07,12,01,58,17.50
2009,07,12,01,59,17.50
2009,07,12,02,00,17.50
2009,07,12,02,01,17.50
2009,07,12,02,02,17.50
2009,07,12,02,03,17.50
2009,07,12,02,04,17.50
2009,07,12,02,05,17.50
2009,07,12,02,06,17.50
2009,07,12,02,07,17.40
2009,07,12,02,08,17.40
2009,07,12,02,09,17.40
2009,07,12,02,10,17.40
2009,07,12,02,11,17.40
2009,07,12,02,12,17.40
2009,07,12,02,13,17.40
2009,07,12,02,14,17.40
2009,07,12,02,15,17.40
2009,07,12,02,16,17.50
2009,07,12,02,17,17.60
2009,07,12,02,18,17.60
2009,07,12,02,19,17.60
2009,07,12,02,20,17.70
2009,07,12,02,21,17.70
2009,07,12,02,22,17.80
2009,07,12,02,23,17.80
2009,07,12,02,24,17.80
2009,07,12,02,25,17.90
2009,07,12,02,26,17.90
2009,07,12,02,27,17.90
2009,07,12,02,28,17.90
2009,07,12,02,29,17.90
2009,07,12,02,30,17.90
2009,07,12,02,31,17.90
2009,07,12,02,32,17.90
2009,07,12,02,33,17.90
2009,07,12,02,34,17.90
2009,07,12,02,35,17.90
2009,07,12,02,36,17.90
2009,07,12,02,37,17.90
2009,07,12,02,38,17.80
2009,07,12,02,39,17.80
2009,07,12,02,40,17.80
2009,07,12,02,41,17.80
2009,07,12,02,42,17.70
2009,07,12,02,43,17.70
2009,07,12,02,44,17.70
2009,07,12,02,45,17.60
2009,07,12,02,46,17.50
2009,07,12,02,47,17.30
2009,07,12,02,48,17.20
2009,07,12,02,49,17.10
2009,07,12,02,50,17.00
2009,07,12,02,51,17.00
2009,07,12,02,52,16.90
2009,07,12,02,53,16.70
2009,07,12,02,54,16.60
2009,07,12,02,55,16.50
2009,07,12,02,56,16.40
2009,07,12,02,57,16.40
2009,07,12,02,58,16.30
2009,07,12,02,59,16.20
2009,07,12,03,00,16.20
2009,07,12,03,01,16.20
2009,07,12,03,02,16.10
2009,07,12,03,03,16.10
2009,07,12,03,04,16.10
2009,07,12,03,05,16.10
2009,07,12,03,06,15.90
2009,07,12,03,07,15.90
2009,07,12,03,08,15.90
2009,07,12,03,09,15.80
2009,07,12,03,10,15.80
2009,07,12,03,11,15.80
2009,07,12,03,12,15.80
2009,07,12,03,13,15.70
2009,07,12,03,14,15.70
2009,07,12,03,15,15.70
2009,07,12,03,16,15.70
2009,07,12,03,17,15.60
2009,07,12,03,18,15.60
2009,07,12,03,19,15.60
2009,07,12,03,20,15.60
2009,07,12,03,21,15.60
2009,07,12,03,22,15.50
2009,07,12,03,23,15.50
2009,07,12,03,24,15.50
2009,07,12,03,25,15.50
2009,07,12,03,26,15.50
2009,07,12,03,27,15.40
2009,07,12,03,28,15.40
2009,07,12,03,29,15.40
2009,07,12,03,30,15.40
2009,07,12,03,31,15.40
2009,07,12,03,32,15.40
2009,07,12,03,33,15.40
2009,07,12,03,34,15.30
2009,07,12,03,35,15.30
2009,07,12,03,36,15.30
2009,07,12,03,37,15.30
2009,07,12,03,38,15.40
2009,07,12,03,39,15.40
2009,07,12,03,40,15.40
2009,07,12,03,41,15.40
2009,07,12,03,42,15.40
2009,07,12,03,43,15.20
2009,07,12,03,44,15.00
2009,07,12,03,45,14.90
2009,07,12,03,46,14.80
2009,07,12,03,47,14.70
2009,07,12,03,48,14.70
2009,07,12,03,49,14.60
2009,07,12,03,50,14.60
2009,07,12,03,51,14.50
2009,07,12,03,52,14.50
2009,07,12,03,53,14.40
2009,07,12,03,54,14.30
2009,07,12,03,55,14.20
2009,07,12,03,56,14.20
2009,07,12,03,57,14.10
2009,07,12,03,58,14.00
2009,07,12,03,59,14.00
2009,07,12,04,00,14.00
2009,07,12,04,01,14.00
2009,07,12,04,02,14.00
2009,07,12,04,03,13.90
2009,07,12,04,04,13.90
2009,07,12,04,05,13.90
2009,07,12,04,06,13.90
2009,07,12,04,07,13.80
2009,07,12,04,08,13.80
2009,07,12,04,09,13.70
2009,07,12,04,10,13.70
2009,07,12,04,11,13.70
2009,07,12,04,12,13.60
2009,07,12,04,13,13.60
2009,07,12,04,14,13.60
2009,07,12,04,15,13.60
2009,07,12,04,16,13.50
2009,07,12,04,17,13.50
2009,07,12,04,18,13.50
2009,07,12,04,19,13.50
2009,07,12,04,20,13.50
2009,07,12,04,21,13.50
2009,07,12,04,22,13.50
2009,07,12,04,23,13.50
2009,07,12,04,24,13.50
2009,07,12,04,25,13.40
2009,07,12,04,26,13.40
2009,07,12,04,27,13.40
2009,07,12,04,28,13.40
2009,07,12,04,29,13.40
2009,07,12,04,30,13.30
2009,07,12,04,31,13.30
2009,07,12,04,32,13.30
2009,07,12,04,33,13.30
2009,07,12,04,34,13.30
2009,07,12,04,35,13.30
2009,07,12,04,36,13.30
2009,07,12,04,37,13.30
2009,07,12,04,38,13.30
2009,07,12,04,39,13.30
2009,07,12,04,40,13.30
2009,07,12,04,41,13.30
2009,07,12,04,42,13.30
2009,07,12,04,43,13.30
2009,07,12,04,44,13.30
2009,07,12,04,45,13.30
2009,07,12,04,46,13.30
2009,07,12,04,47,13.20
2009,07,12,04,48,13.20
2009,07,12,04,49,13.20
2009,07,12,04,50,13.20
2009,07,12,04,51,13.20
2009,07,12,04,52,13.10
2009,07,12,04,53,13.10
2009,07,12,04,54,13.10
2009,07,12,04,55,13.10
2009,07,12,04,56,13.00
2009,07,12,04,57,13.00
2009,07,12,04,58,13.00
2009,07,12,04,59,13.00
2009,07,12,05,00,13.00
2009,07,12,05,01,13.00
2009,07,12,05,02,13.00
2009,07,12,05,03,13.00
2009,07,12,05,04,13.00
2009,07,12,05,05,13.00
2009,07,12,05,06,13.00
2009,07,12,05,07,12.90
2009,07,12,05,08,12.80
2009,07,12,05,09,12.80
2009,07,12,05,10,12.80
2009,07,12,05,11,12.70
2009,07,12,05,12,12.70
2009,07,12,05,13,12.60
2009,07,12,05,14,12.60
2009,07,12,05,15,12.50
2009,07,12,05,16,12.50
2009,07,12,05,17,12.40
2009,07,12,05,18,12.40
2009,07,12,05,19,12.40
2009,07,12,05,20,12.30
2009,07,12,05,21,12.30
2009,07,12,05,22,12.30
2009,07,12,05,23,12.30
2009,07,12,05,24,12.30
2009,07,12,05,25,12.30
2009,07,12,05,26,12.30
2009,07,12,05,27,12.30
2009,07,12,05,28,12.20
2009,07,12,05,29,12.20
2009,07,12,05,30,12.20
2009,07,12,05,31,12.20
2009,07,12,05,32,12.20
2009,07,12,05,33,12.20
2009,07,12,05,34,12.20
2009,07,12,05,35,12.20
2009,07,12,05,36,12.20
2009,07,12,05,37,12.20
2009,07,12,05,38,12.20
2009,07,12,05,39,12.20
2009,07,12,05,40,12.20
2009,07,12,05,41,12.20
2009,07,12,05,42,12.20
2009,07,12,05,43,12.20
2009,07,12,05,44,12.20
2009,07,12,05,45,12.20
2009,07,12,05,46,12.20
2009,07,12,05,47,12.20
2009,07,12,05,48,12.20
2009,07,12,05,49,12.20
2009,07,12,05,50,12.20
2009,07,12,05,51,12.20
2009,07,12,05,52,12.20
2009,07,12,05,53,12.10
2009,07,12,05,54,12.10
2009,07,12,05,55,12.10
2009,07,12,05,56,12.10
2009,07,12,05,57,12.10
2009,07,12,05,58,12.10
2009,07,12,05,59,12.10
2009,07,12,06,00,12.10
2009,07,12,06,01,12.10
2009,07,12,06,02,12.10
2009,07,12,06,03,12.20
2009,07,12,06,04,12.20
2009,07,12,06,05,12.20
2009,07,12,06,06,12.20
2009,07,12,06,07,12.20
2009,07,12,06,08,12.20
2009,07,12,06,09,12.30
2009,07,12,06,10,12.30
2009,07,12,06,11,12.30
2009,07,12,06,12,12.30
2009,07,12,06,13,12.30
2009,07,12,06,14,12.40
2009,07,12,06,15,12.40
2009,07,12,06,16,12.50
2009,07,12,06,17,12.60
2009,07,12,06,18,12.60
2009,07,12,06,19,12.70
2009,07,12,06,20,12.80
2009,07,12,06,21,12.80
2009,07,12,06,22,12.80
2009,07,12,06,23,12.90
2009,07,12,06,24,13.00
2009,07,12,06,25,13.00
2009,07,12,06,26,13.10
2009,07,12,06,27,13.10
2009,07,12,06,28,13.20
2009,07,12,06,29,13.20
2009,07,12,06,30,13.20
2009,07,12,06,31,13.30
2009,07,12,06,32,13.30
2009,07,12,06,33,13.30
2009,07,12,06,34,13.40
2009,07,12,06,35,13.40
2009,07,12,06,36,13.50
2009,07,12,06,37,13.50
2009,07,12,06,38,13.60
2009,07,12,06,39,13.60
2009,07,12,06,40,13.70
2009,07,12,06,41,13.70
2009,07,12,06,42,13.70
2009,07,12,06,43,13.70
2009,07,12,06,44,13.80
2009,07,12,06,45,13.80
2009,07,12,06,46,13.90
2009,07,12,06,47,13.90
2009,07,12,06,48,13.90
2009,07,12,06,49,13.90
2009,07,12,06,50,13.80
2009,07,12,06,51,13.80
2009,07,12,06,52,13.80
2009,07,12,06,53,13.80
2009,07,12,06,54,13.80
2009,07,12,06,55,13.80
2009,07,12,06,56,13.80
2009,07,12,06,57,13.80
2009,07,12,06,58,13.80
2009,07,12,06,59,13.80
2009,07,12,07,00,13.90
2009,07,12,07,01,13.90
2009,07,12,07,02,13.90
2009,07,12,07,03,14.00
2009,07,12,07,04,14.00
2009,07,12,07,05,14.10
2009,07,12,07,06,14.10
2009,07,12,07,07,14.10
2009,07,12,07,08,14.20
2009,07,12,07,09,14.20
2009,07,12,07,10,14.20
2009,07,12,07,11,14.30
2009,07,12,07,12,14.40
2009,07,12,07,13,14.50
2009,07,12,07,14,14.50
2009,07,12,07,15,14.60
2009,07,12,07,16,14.60
2009,07,12,07,17,14.70
2009,07,12,07,18,14.70
2009,07,12,07,19,14.70
2009,07,12,07,20,14.80
2009,07,12,07,21,14.80
2009,07,12,07,22,14.70
2009,07,12,07,23,14.60
2009,07,12,07,24,14.60
2009,07,12,07,25,14.50
2009,07,12,07,26,14.40
2009,07,12,07,27,14.20
2009,07,12,07,28,14.20
2009,07,12,07,29,14.20
2009,07,12,07,30,14.20
2009,07,12,07,31,14.20
2009,07,12,07,32,14.20
2009,07,12,07,33,14.10
2009,07,12,07,34,14.10
2009,07,12,07,35,14.00
2009,07,12,07,36,14.00
2009,07,12,07,37,14.00
2009,07,12,07,38,14.00
2009,07,12,07,39,13.90
2009,07,12,07,40,14.00
2009,07,12,07,41,14.00
2009,07,12,07,42,14.00
2009,07,12,07,43,14.00
2009,07,12,07,44,14.00
2009,07,12,07,45,14.00
2009,07,12,07,46,14.00
2009,07,12,07,47,14.00
2009,07,12,07,48,14.00
2009,07,12,07,49,14.10
2009,07,12,07,50,14.10
2009,07,12,07,51,14.00
2009,07,12,07,52,14.00
2009,07,12,07,53,13.90
2009,07,12,07,54,13.90
2009,07,12,07,55,13.80
2009,07,12,07,56,13.70
2009,07,12,07,57,13.70
2009,07,12,07,58,13.70
2009,07,12,07,59,13.80
2009,07,12,08,00,13.80
2009,07,12,08,01,13.80
2009,07,12,08,02,13.80
2009,07,12,08,03,13.90
2009,07,12,08,04,14.00
2009,07,12,08,05,14.10
2009,07,12,08,06,14.20
2009,07,12,08,07,14.20
2009,07,12,08,08,14.10
2009,07,12,08,09,14.10
2009,07,12,08,10,14.00
2009,07,12,08,11,13.90
2009,07,12,08,12,13.80
2009,07,12,08,13,13.70
2009,07,12,08,14,13.70
2009,07,12,08,15,13.70
2009,07,12,08,16,13.80
2009,07,12,08,17,13.90
2009,07,12,08,18,13.90
2009,07,12,08,19,13.90
2009,07,12,08,20,13.90
2009,07,12,08,21,13.90
2009,07,12,08,22,13.90
2009,07,12,08,23,13.90
2009,07,12,08,24,13.90
2009,07,12,08,25,13.80
2009,07,12,08,26,13.80
2009,07,12,08,27,13.90
2009,07,12,08,28,14.00
2009,07,12,08,29,14.10
2009,07,12,08,30,14.10
2009,07,12,08,31,14.20
2009,07,12,08,32,14.20
2009,07,12,08,33,14.20
2009,07,12,08,34,14.20
2009,07,12,08,35,14.20
2009,07,12,08,36,14.20
2009,07,12,08,37,14.10
2009,07,12,08,38,14.10
2009,07,12,08,39,14.00
2009,07,12,08,40,14.00
2009,07,12,08,41,14.00
2009,07,12,08,42,14.00
2009,07,12,08,43,14.10
2009,07,12,08,44,14.20
2009,07,12,08,45,14.20
2009,07,12,08,46,14.30
2009,07,12,08,47,14.40
2009,07,12,08,48,14.50
2009,07,12,08,49,14.60
2009,07,12,08,50,14.60
2009,07,12,08,51,14.70
2009,07,12,08,52,14.80
2009,07,12,08,53,14.70
2009,07,12,08,54,14.70
2009,07,12,08,55,14.70
2009,07,12,08,56,14.60
2009,07,12,08,57,14.60
2009,07,12,08,58,14.50
2009,07,12,08,59,14.50
2009,07,12,09,00,14.50
2009,07,12,09,01,14.50
2009,07,12,09,02,14.50
2009,07,12,09,03,14.40
2009,07,12,09,04,14.40
2009,07,12,09,05,14.40
2009,07,12,09,06,14.40
2009,07,12,09,07,14.30
2009,07,12,09,08,14.40
2009,07,12,09,09,14.50
2009,07,12,09,10,14.50
2009,07,12,09,11,14.60
2009,07,12,09,12,14.60
2009,07,12,09,13,14.70
2009,07,12,09,14,14.80
2009,07,12,09,15,14.80
2009,07,12,09,16,14.80
2009,07,12,09,17,14.80
2009,07,12,09,18,14.90
2009,07,12,09,19,14.90
2009,07,12,09,20,14.90
2009,07,12,09,21,14.90
2009,07,12,09,22,14.90
2009,07,12,09,23,14.90
2009,07,12,09,24,14.80
2009,07,12,09,25,14.80
2009,07,12,09,26,14.70
2009,07,12,09,27,14.60
2009,07,12,09,28,14.50
2009,07,12,09,29,14.50
2009,07,12,09,30,14.60
2009,07,12,09,31,14.70
2009,07,12,09,32,14.70
2009,07,12,09,33,14.60
2009,07,12,09,34,14.50
2009,07,12,09,35,14.50
2009,07,12,09,36,14.40
2009,07,12,09,37,14.30
2009,07,12,09,38,14.40
2009,07,12,09,39,14.50
2009,07,12,09,40,14.60
2009,07,12,09,41,14.70
2009,07,12,09,42,14.90
2009,07,12,09,43,15.00
2009,07,12,09,44,15.20
2009,07,12,09,45,15.40
2009,07,12,09,46,15.60
2009,07,12,09,47,15.70
2009,07,12,09,48,15.90
2009,07,12,09,49,15.90
2009,07,12,09,50,15.80
2009,07,12,09,51,15.70
2009,07,12,09,52,15.50
2009,07,12,09,53,15.40
2009,07,12,09,54,15.30
2009,07,12,09,55,15.30
2009,07,12,09,56,15.20
2009,07,12,09,57,15.10
2009,07,12,09,58,15.00
2009,07,12,09,59,15.00
2009,07,12,10,00,15.00
2009,07,12,10,01,15.00
2009,07,12,10,02,15.00
2009,07,12,10,03,15.00
2009,07,12,10,04,15.00
2009,07,12,10,05,15.10
2009,07,12,10,06,15.20
2009,07,12,10,07,15.30
2009,07,12,10,08,15.30
2009,07,12,10,09,15.40
2009,07,12,10,10,15.50
2009,07,12,10,11,15.60
2009,07,12,10,12,15.60
2009,07,12,10,13,15.70
2009,07,12,10,14,15.60
2009,07,12,10,15,15.60
2009,07,12,10,16,15.50
2009,07,12,10,17,15.30
2009,07,12,10,18,15.30
2009,07,12,10,19,15.20
2009,07,12,10,20,15.30
2009,07,12,10,21,15.30
2009,07,12,10,22,15.30
2009,07,12,10,23,15.30
2009,07,12,10,24,15.30
2009,07,12,10,25,15.40
2009,07,12,10,26,15.50
2009,07,12,10,27,15.40
2009,07,12,10,28,15.40
2009,07,12,10,29,15.30
2009,07,12,10,30,15.40
2009,07,12,10,31,15.50
2009,07,12,10,32,15.60
2009,07,12,10,33,15.60
2009,07,12,10,34,15.70
2009,07,12,10,35,15.60
2009,07,12,10,36,15.50
2009,07,12,10,37,15.60
2009,07,12,10,38,15.60
2009,07,12,10,39,15.70
2009,07,12,10,40,15.80
2009,07,12,10,41,15.80
2009,07,12,10,42,15.90
2009,07,12,10,43,16.00
2009,07,12,10,44,16.10
2009,07,12,10,45,16.20
2009,07,12,10,46,16.30
2009,07,12,10,47,16.40
2009,07,12,10,48,16.50
2009,07,12,10,49,16.60
2009,07,12,10,50,16.70
2009,07,12,10,51,16.70
2009,07,12,10,52,16.70
2009,07,12,10,53,16.70
2009,07,12,10,54,16.80
2009,07,12,10,55,16.90
2009,07,12,10,56,16.80
2009,07,12,10,57,16.60
2009,07,12,10,58,16.40
2009,07,12,10,59,16.30
2009,07,12,11,00,16.10
2009,07,12,11,01,16.10
2009,07,12,11,02,16.10
2009,07,12,11,03,16.10
2009,07,12,11,04,16.10
2009,07,12,11,05,16.00
2009,07,12,11,06,15.80
2009,07,12,11,07,15.60
2009,07,12,11,08,15.40
2009,07,12,11,09,15.30
2009,07,12,11,10,15.20
2009,07,12,11,11,15.10
2009,07,12,11,12,15.00
2009,07,12,11,13,15.00
2009,07,12,11,14,15.10
2009,07,12,11,15,15.10
2009,07,12,11,16,15.30
2009,07,12,11,17,15.40
2009,07,12,11,18,15.50
2009,07,12,11,19,15.60
2009,07,12,11,20,15.70
2009,07,12,11,21,15.80
2009,07,12,11,22,15.90
2009,07,12,11,23,15.90
2009,07,12,11,24,16.10
2009,07,12,11,25,16.10
2009,07,12,11,26,16.20
2009,07,12,11,27,16.30
2009,07,12,11,28,16.40
2009,07,12,11,29,16.50
2009,07,12,11,30,16.60
2009,07,12,11,31,16.60
2009,07,12,11,32,16.70
2009,07,12,11,33,16.70
2009,07,12,11,34,16.70
2009,07,12,11,35,16.60
2009,07,12,11,36,16.60
2009,07,12,11,37,16.40
2009,07,12,11,38,16.40
2009,07,12,11,39,16.40
2009,07,12,11,40,16.20
2009,07,12,11,41,16.10
2009,07,12,11,42,16.10
2009,07,12,11,43,16.10
2009,07,12,11,44,16.10
2009,07,12,11,45,16.10
2009,07,12,11,46,16.10
2009,07,12,11,47,16.10
2009,07,12,11,48,16.10
2009,07,12,11,49,16.10
2009,07,12,11,50,16.10
2009,07,12,11,51,16.20
2009,07,12,11,52,16.20
2009,07,12,11,53,16.20
2009,07,12,11,54,16.20
2009,07,12,11,55,16.10
2009,07,12,11,56,16.10
2009,07,12,11,57,16.10
2009,07,12,11,58,16.10
2009,07,12,11,59,16.20
2009,07,12,12,00,16.30
2009,07,12,12,01,16.30
2009,07,12,12,02,16.30
2009,07,12,12,03,16.40
2009,07,12,12,04,16.40
2009,07,12,12,05,16.40
2009,07,12,12,06,16.50
2009,07,12,12,07,16.60
2009,07,12,12,08,16.60
2009,07,12,12,09,16.60
2009,07,12,12,10,16.60
2009,07,12,12,11,16.50
2009,07,12,12,12,16.40
2009,07,12,12,13,16.40
2009,07,12,12,14,16.30
2009,07,12,12,15,16.30
2009,07,12,12,16,16.20
2009,07,12,12,17,16.20
2009,07,12,12,18,16.10
2009,07,12,12,19,16.10
2009,07,12,12,20,16.10
2009,07,12,12,21,16.10
2009,07,12,12,22,16.10
2009,07,12,12,23,16.10
2009,07,12,12,24,16.10
2009,07,12,12,25,16.30
2009,07,12,12,26,16.40
2009,07,12,12,27,16.60
2009,07,12,12,28,16.70
2009,07,12,12,29,16.80
2009,07,12,12,30,16.90
2009,07,12,12,31,17.00
2009,07,12,12,32,17.10
2009,07,12,12,33,17.20
2009,07,12,12,34,17.10
2009,07,12,12,35,16.90
2009,07,12,12,36,16.70
2009,07,12,12,37,16.70
2009,07,12,12,38,16.80
2009,07,12,12,39,16.90
2009,07,12,12,40,16.90
2009,07,12,12,41,16.80
2009,07,12,12,42,16.70
2009,07,12,12,43,16.70
2009,07,12,12,44,16.60
2009,07,12,12,45,16.60
2009,07,12,12,46,16.60
2009,07,12,12,47,16.60
2009,07,12,12,48,16.60
2009,07,12,12,49,16.60
2009,07,12,12,50,16.50
2009,07,12,12,51,16.30
2009,07,12,12,52,16.10
2009,07,12,12,53,16.10
2009,07,12,12,54,16.20
2009,07,12,12,55,16.20
2009,07,12,12,56,16.20
2009,07,12,12,57,16.10
2009,07,12,12,58,15.90
2009,07,12,12,59,15.80
2009,07,12,13,00,15.80
2009,07,12,13,01,15.70
2009,07,12,13,02,15.60
2009,07,12,13,03,15.60
2009,07,12,13,04,15.50
2009,07,12,13,05,15.60
2009,07,12,13,06,15.30
2009,07,12,13,07,15.10
2009,07,12,13,08,15.10
2009,07,12,13,09,15.20
2009,07,12,13,10,15.30
2009,07,12,13,11,15.40
2009,07,12,13,12,15.30
2009,07,12,13,13,15.40
2009,07,12,13,14,15.40
2009,07,12,13,15,15.40
2009,07,12,13,16,15.50
2009,07,12,13,17,15.70
2009,07,12,13,18,15.80
2009,07,12,13,19,15.80
2009,07,12,13,20,15.80
2009,07,12,13,21,15.90
2009,07,12,13,22,16.10
2009,07,12,13,23,16.10
2009,07,12,13,24,16.30
2009,07,12,13,25,16.40
2009,07,12,13,26,16.50
2009,07,12,13,27,16.70
2009,07,12,13,28,16.90
2009,07,12,13,29,17.00
2009,07,12,13,30,17.00
2009,07,12,13,31,17.00
2009,07,12,13,32,17.00
2009,07,12,13,33,17.00
2009,07,12,13,34,17.00
2009,07,12,13,35,17.20
2009,07,12,13,36,17.30
2009,07,12,13,37,17.40
2009,07,12,13,38,17.50
2009,07,12,13,39,17.80
2009,07,12,13,40,18.00
2009,07,12,13,41,18.20
2009,07,12,13,42,18.40
2009,07,12,13,43,18.50
2009,07,12,13,44,18.60
2009,07,12,13,45,18.70
2009,07,12,13,46,18.80
2009,07,12,13,47,18.80
2009,07,12,13,48,18.70
2009,07,12,13,49,18.50
2009,07,12,13,50,18.20
2009,07,12,13,51,17.90
2009,07,12,13,52,17.60
2009,07,12,13,53,17.40
2009,07,12,13,54,17.40
2009,07,12,13,55,17.30
2009,07,12,13,56,17.30
2009,07,12,13,57,17.30
2009,07,12,13,58,17.10
2009,07,12,13,59,17.00
2009,07,12,14,00,17.00
2009,07,12,14,01,17.10
2009,07,12,14,02,17.20
2009,07,12,14,03,17.30
2009,07,12,14,04,17.40
2009,07,12,14,05,17.40
2009,07,12,14,06,17.30
2009,07,12,14,07,17.20
2009,07,12,14,08,17.10
2009,07,12,14,09,17.00
2009,07,12,14,10,16.90
2009,07,12,14,11,16.70
2009,07,12,14,12,16.50
2009,07,12,14,13,16.30
2009,07,12,14,14,16.20
2009,07,12,14,15,16.20
2009,07,12,14,16,16.10
2009,07,12,14,17,16.20
2009,07,12,14,18,16.20
2009,07,12,14,19,16.30
2009,07,12,14,20,16.20
2009,07,12,14,21,16.10
2009,07,12,14,22,16.10
2009,07,12,14,23,16.10
2009,07,12,14,24,16.20
2009,07,12,14,25,16.20
2009,07,12,14,26,16.10
2009,07,12,14,27,16.10
2009,07,12,14,28,16.00
2009,07,12,14,29,15.90
2009,07,12,14,30,15.80
2009,07,12,14,31,16.00
2009,07,12,14,32,16.00
2009,07,12,14,33,15.90
2009,07,12,14,34,15.80
2009,07,12,14,35,15.80
2009,07,12,14,36,15.80
2009,07,12,14,37,15.80
2009,07,12,14,38,15.90
2009,07,12,14,39,15.90
2009,07,12,14,40,15.90
2009,07,12,14,41,16.00
2009,07,12,14,42,16.10
2009,07,12,14,43,16.10
2009,07,12,14,44,16.10
2009,07,12,14,45,16.20
2009,07,12,14,46,16.30
2009,07,12,14,47,16.40
2009,07,12,14,48,16.40
2009,07,12,14,49,16.50
2009,07,12,14,50,16.40
2009,07,12,14,51,16.40
2009,07,12,14,52,16.30
2009,07,12,14,53,16.30
2009,07,12,14,54,16.20
2009,07,12,14,55,16.20
2009,07,12,14,56,16.20
2009,07,12,14,57,16.20
2009,07,12,14,58,16.20
2009,07,12,14,59,16.30
2009,07,12,15,00,16.40
2009,07,12,15,01,16.40
2009,07,12,15,02,16.30
2009,07,12,15,03,16.30
2009,07,12,15,04,16.30
2009,07,12,15,05,16.20
2009,07,12,15,06,16.10
2009,07,12,15,07,16.10
2009,07,12,15,08,16.10
2009,07,12,15,09,16.00
2009,07,12,15,10,15.90
2009,07,12,15,11,15.90
2009,07,12,15,12,16.00
2009,07,12,15,13,16.10
2009,07,12,15,14,16.10
2009,07,12,15,15,16.10
2009,07,12,15,16,16.10
2009,07,12,15,17,16.10
2009,07,12,15,18,16.00
2009,07,12,15,19,15.90
2009,07,12,15,20,15.90
2009,07,12,15,21,16.00
2009,07,12,15,22,16.10
2009,07,12,15,23,16.00
2009,07,12,15,24,15.90
2009,07,12,15,25,15.80
2009,07,12,15,26,15.80
2009,07,12,15,27,15.70
2009,07,12,15,28,15.60
2009,07,12,15,29,15.50
2009,07,12,15,30,15.40
2009,07,12,15,31,15.40
2009,07,12,15,32,15.40
2009,07,12,15,33,15.40
2009,07,12,15,34,15.40
2009,07,12,15,35,15.40
2009,07,12,15,36,15.40
2009,07,12,15,37,15.40
2009,07,12,15,38,15.40
2009,07,12,15,39,15.40
2009,07,12,15,40,15.30
2009,07,12,15,41,15.30
2009,07,12,15,42,15.30
2009,07,12,15,43,15.30
2009,07,12,15,44,15.30
2009,07,12,15,45,15.20
2009,07,12,15,46,15.20
2009,07,12,15,47,15.20
2009,07,12,15,48,15.20
2009,07,12,15,49,15.30
2009,07,12,15,50,15.20
2009,07,12,15,51,15.20
2009,07,12,15,52,15.20
2009,07,12,15,53,15.30
2009,07,12,15,54,15.30
2009,07,12,15,55,15.40
2009,07,12,15,56,15.40
2009,07,12,15,57,15.40
2009,07,12,15,58,15.50
2009,07,12,15,59,15.60
2009,07,12,16,00,15.50
2009,07,12,16,01,15.50
2009,07,12,16,02,15.40
2009,07,12,16,03,15.30
2009,07,12,16,04,15.20
2009,07,12,16,05,15.20
2009,07,12,16,06,15.20
2009,07,12,16,07,15.20
2009,07,12,16,08,15.20
2009,07,12,16,09,15.20
2009,07,12,16,10,15.20
2009,07,12,16,11,15.30
2009,07,12,16,12,15.30
2009,07,12,16,13,15.30
2009,07,12,16,14,15.30
2009,07,12,16,15,15.30
2009,07,12,16,16,15.30
2009,07,12,16,17,15.30
2009,07,12,16,18,15.30
2009,07,12,16,19,15.20
2009,07,12,16,20,15.20
2009,07,12,16,21,15.20
2009,07,12,16,22,15.20
2009,07,12,16,23,15.20
2009,07,12,16,24,15.20
2009,07,12,16,25,15.10
2009,07,12,16,26,15.10
2009,07,12,16,27,15.10
2009,07,12,16,28,15.10
2009,07,12,16,29,15.00
2009,07,12,16,30,15.00
2009,07,12,16,31,14.90
2009,07,12,16,32,14.80
2009,07,12,16,33,14.80
2009,07,12,16,34,14.70
2009,07,12,16,35,14.60
2009,07,12,16,36,14.50
2009,07,12,16,37,14.40
2009,07,12,16,38,14.30
2009,07,12,16,39,14.30
2009,07,12,16,40,14.20
2009,07,12,16,41,14.20
2009,07,12,16,42,14.20
2009,07,12,16,43,14.20
2009,07,12,16,44,14.10
2009,07,12,16,45,14.00
2009,07,12,16,46,14.00
2009,07,12,16,47,14.00
2009,07,12,16,48,14.00
2009,07,12,16,49,14.00
2009,07,12,16,50,14.00
2009,07,12,16,51,14.10
2009,07,12,16,52,14.10
2009,07,12,16,53,14.20
2009,07,12,16,54,14.20
2009,07,12,16,55,14.20
2009,07,12,16,56,14.40
2009,07,12,16,57,14.50
2009,07,12,16,58,14.50
2009,07,12,16,59,14.60
2009,07,12,17,00,14.60
2009,07,12,17,01,14.50
2009,07,12,17,02,14.50
2009,07,12,17,03,14.40
2009,07,12,17,04,14.30
2009,07,12,17,05,14.20
2009,07,12,17,06,14.20
2009,07,12,17,07,14.20
2009,07,12,17,08,14.20
2009,07,12,17,09,14.20
2009,07,12,17,10,14.20
2009,07,12,17,11,14.20
2009,07,12,17,12,14.20
2009,07,12,17,13,14.30
2009,07,12,17,14,14.30
2009,07,12,17,15,14.30
2009,07,12,17,16,14.40
2009,07,12,17,17,14.40
2009,07,12,17,18,14.40
2009,07,12,17,19,14.50